Location: Ticehurst
(51.0333°N, 0.4167°E)
Time: 21:42:39
(UTC+00:00)

Daily predictions for brighter satellites

Satellite Brightness Start Highest point End
(mag) Time Altitude Azimuth Time Altitude Azimuth Time Altitude Azimuth
Thor Agena Rocket 3.8 16:23:13 10° SE 16:28:09 46° ENE 16:33:03 10° N
CENTAUR R/B 2.9 16:22:41 10° WSW 16:28:29 66° NW 16:35:53 10° NE
USA 290 2.3 16:28:52 10° NNW 16:32:06 57° ENE 16:35:19 10° SE
Cosmos 1484 Rocket 2.5 16:29:10 10° SSE 16:32:38 62° ENE 16:36:06 10° N
Cosmos 1544 Rocket 3.9 16:28:49 10° SSE 16:33:02 47° E 16:37:18 10° NNE
SL-16 R/B 2.7 16:27:14 10° NNE 16:33:23 57° ESE 16:39:28 10° S
Cosmos 1844 Rocket 4.5 16:31:15 10° N 16:33:52 13° NNE 16:36:29 10° NE
Lacrosse 5 rocket 1.6 16:30:13 10° W 16:33:53 49° NNW 16:37:29 10° NE
Cosmos 1980 Rocket 4.0 16:33:40 10° ESE 16:35:16 11° E 16:36:51 10° ENE
Iridium 51 3.6 16:35:20 10° S 16:38:28 84° E 16:41:42 10° N
Lacrosse 4 Rocket 2.6 16:35:22 10° WSW 16:39:05 34° NW 16:42:45 10° NNE
BREEZE M DEB (TANK) 4.1 16:37:32 10° SSW 16:39:09 14° SSE 16:40:28 10° ESE
Meteor 1-27 4.4 16:35:34 10° SSW 16:41:22 83° W 16:47:10 10° NNE
CORIOLIS 4.3 16:37:11 10° SE 16:42:20 53° ENE 16:47:33 10° N
Cosmos 2263 Rocket 2.9 16:37:40 10° NNW 16:42:43 32° NE 16:47:46 10° ESE
Cosmos 2228 3.1 16:39:34 10° SSW 16:43:48 81° W 16:48:06 10° N
Cosmos 1777 Rocket 4.5 16:39:12 10° S 16:44:08 43° ESE 16:49:03 10° NE
CZ-2D R/B 3.7 16:46:17 10° SE 16:48:58 26° ENE 16:51:39 10° N
Okean 1-7 Rocket 3.9 16:46:10 10° N 16:50:21 41° ENE 16:54:28 10° SE
Cosmos 1455 Rocket 4.4 16:47:02 10° SW 16:51:06 39° WNW 16:55:13 10° N
Cosmos 1602 Rocket 3.6 16:47:59 10° N 16:52:21 60° ENE 16:56:38 10° SSE
Cosmos 1461 3.3 16:51:39 10° SSW 16:55:19 41° ESE 16:58:30 13° NE
Cosmos 1933 4.1 16:54:36 10° SSE 16:57:55 28° E 17:01:14 10° NNE
Cosmos 2227 Rocket 2.2 16:53:53 10° NNW 16:59:29 58° NE 17:05:02 10° SE
USA 215 3.6 16:53:50 11° ENE 16:59:59 55° N 17:06:21 10° W
Cosmos 1634 Rocket 4.3 16:54:06 10° SSW 17:00:15 70° WNW 17:06:27 10° N
IRS-1C 4.2 16:55:10 10° SE 17:00:20 55° ENE 17:05:32 10° N
YAOGAN 1 3.9 16:58:21 10° ESE 17:01:16 18° ENE 17:04:11 10° NNE
IRIDIUM 103 4.4 16:56:24 10° N 17:01:35 59° E 17:06:44 10° SSE
Cosmos 1743 2.3 16:59:39 10° N 17:02:56 86° WSW 17:06:09 10° S
NOSS 7 (H) 3.9 17:00:09 10° NW 17:03:04 76° NE 17:06:10 10° SE
Cosmos 1486 Rocket 4.0 16:58:35 10° SSW 17:03:47 76° ESE 17:09:03 10° NNE
Cosmos 2369 Rocket 4.1 16:59:31 10° W 17:03:49 22° NW 17:08:09 10° NNE
SJ-12 4.0 17:01:28 10° SE 17:05:04 44° ENE 17:08:42 10° N
Cosmos 2151 2.8 17:02:17 10° N 17:06:29 79° E 17:10:38 10° SSE
Cosmos 2360 4.2 17:02:12 10° SSW 17:07:54 79° ESE 17:13:40 10° NNE
Cosmos 2279 Rocket 4.1 17:05:37 10° SSW 17:11:50 81° W 17:18:07 10° N
Cosmos 1655 Rocket 4.3 17:06:15 10° N 17:12:13 44° ENE 17:18:07 10° SE
IGS 5A 4.0 17:10:12 10° S 17:14:06 59° W 17:18:03 10° NNW
Cosmos 1867 3.7 17:08:51 10° NW 17:14:21 83° SW 17:19:47 10° SE
Cosmos 1697 Rocket 3.0 17:09:26 10° S 17:14:44 46° ESE 17:19:15 14° NE
Cosmos 990 Rocket 4.4 17:10:28 10° S 17:15:12 40° ESE 17:19:09 14° NE
Cosmos 1953 Rocket 4.2 17:12:00 10° N 17:16:04 34° ENE 17:20:09 10° SE
MOS 1 Rocket 3.5 17:13:00 10° SSE 17:17:51 56° ENE 17:22:59 10° N
SAR-Lupe-4 3.4 17:14:56 10° SSE 17:18:27 66° ENE 17:21:59 10° N
IRIDIUM 106 4.3 17:14:41 10° N 17:19:57 82° E 17:25:11 10° S
NOSS 2-2 (D) 3.5 17:20:17 10° WSW 17:23:20 42° NW 17:25:11 19° NNE
Cosmos 1782 3.4 17:20:19 10° SSW 17:23:49 49° WNW 17:27:20 10° N
Cosmos 2084 Rocket 4.4 17:20:44 10° NW 17:24:49 49° SW 17:28:52 10° SSE
ARIANE 5 R/B 2.5 17:20:09 10° SSE 17:25:14 84° ENE 17:30:24 10° NNW
Cosmos 1825 Rocket 3.4 17:21:11 10° N 17:25:32 66° ENE 17:29:50 10° SSE
SAR-Lupe-1 3.9 17:25:43 10° SSE 17:29:19 76° ENE 17:32:57 10° NNW
Cosmos 2098 Rocket 3.7 17:27:48 10° SSW 17:32:02 60° WNW 17:37:02 10° N
Cosmos 1656 4.2 17:27:33 10° SW 17:33:06 58° NW 17:38:38 11° NNE
USA 81 4.4 17:28:16 10° N 17:33:14 40° ENE 17:38:10 10° SE
UNK 3.7 17:29:40 10° NNE 17:34:17 87° WNW 17:38:50 10° SSW
CZ-2D R/B 3.8 17:32:38 10° SE 17:36:33 40° ENE 17:40:26 10° N
NOSS 3-2 (A) 3.8 17:32:32 10° WSW 17:37:41 53° NW 17:42:25 17° NE
Gbstr 26 Del rocket 3.4 17:34:24 10° SW 17:38:12 41° SSE 17:39:37 28° ESE
NOSS 3-2 (C) 3.1 17:33:54 10° SW 17:39:02 87° SE 17:43:15 21° NE
SPOT 1/Viking Rocket 3.5 17:37:08 10° SSE 17:42:15 60° ENE 17:47:23 10° N
Cosmos 1076 Rocket 3.4 17:39:19 10° N 17:43:37 65° ENE 17:47:54 10° SSE
NOSS 2-2 (E) 3.9 17:40:53 10° WSW 17:43:49 35° NW 17:45:00 25° N
PSLV R/B 3.9 17:43:07 29° E 17:44:14 35° ENE 17:47:57 10° N
SMAP 3.9 17:39:48 10° S 17:44:20 52° W 17:48:55 10° NNW
[s.n.66845] 3.7 17:42:52 10° NNW 17:43:44 17° N 17:43:44 17° N
[s.n.66847] 3.7 17:43:18 10° NNW 17:44:11 17° N 17:44:11 17° N
Cosmos 2266 Rocket 4.4 17:40:03 10° NNW 17:46:10 66° W 17:52:08 10° S
[s.n.66846] 3.7 17:43:44 10° NNW 17:44:37 17° N 17:44:37 17° N
Cosmos 2082 4.0 17:41:11 10° NNW 17:46:42 46° NE 17:50:41 18° ESE
CZ-4C R/B 3.7 17:39:59 10° NW 17:46:48 57° SW 17:55:11 10° SSE
[s.n.66843] 3.7 17:44:16 10° NNW 17:45:08 17° N 17:45:08 17° N
[s.n.66844] 3.7 17:44:42 10° NNW 17:45:35 17° N 17:45:35 17° N
[s.n.66842] 3.7 17:45:15 10° NNW 17:46:06 17° N 17:46:06 17° N
SL-19 R/B 4.4 17:42:48 10° SE 17:48:00 48° ENE 17:53:29 10° N
[s.n.66841] 3.7 17:45:42 10° NNW 17:46:34 17° N 17:46:34 17° N
COSMO-SKYMED 1 3.5 17:49:12 26° ESE 17:49:12 26° ESE 17:51:56 10° SSE
[s.n.66840] 3.7 17:46:12 10° NNW 17:47:03 17° N 17:47:03 17° N
Landsat 7 4.3 17:44:31 10° S 17:49:07 60° W 17:53:45 10° NNW
[s.n.66838] 3.7 17:46:41 10° NNW 17:47:32 17° N 17:47:32 17° N
[s.n.66839] 3.7 17:47:11 10° NNW 17:48:01 17° N 17:48:01 17° N
IRS-P3 4.1 17:44:28 10° SSE 17:49:48 86° WSW 17:55:10 10° NNW
SJ-6F 4.4 17:45:58 10° SSE 17:49:57 84° WSW 17:54:01 10° NNW
[s.n.66837] 3.7 17:47:38 10° NNW 17:48:28 17° N 17:48:28 17° N
Cosmos 2058 Rocket 3.6 17:46:09 10° SSE 17:50:15 36° E 17:50:45 35° ENE
[s.n.66836] 3.7 17:48:08 10° NNW 17:48:58 17° NNW 17:48:58 17° NNW
[s.n.66835] 3.8 17:48:38 10° NNW 17:49:28 17° NNW 17:49:28 17° NNW
[s.n.66834] 3.8 17:49:08 10° NNW 17:49:57 17° NNW 17:49:57 17° NNW
Cosmos 2297 Rocket 4.1 17:46:50 10° NW 17:51:49 32° WSW 17:56:45 10° SSW
[s.n.66833] 3.8 17:49:35 10° NNW 17:50:23 17° NNW 17:50:23 17° NNW
[s.n.66832] 3.8 17:50:07 10° NNW 17:50:56 17° NNW 17:50:56 17° NNW
[s.n.66831] 3.8 17:50:32 10° NNW 17:51:21 17° NNW 17:51:21 17° NNW
[s.n.66830] 3.8 17:50:58 10° NNW 17:51:47 17° NNW 17:51:47 17° NNW
[s.n.66828] 3.8 17:51:24 10° NNW 17:52:12 17° NNW 17:52:12 17° NNW
[s.n.66829] 3.8 17:51:56 10° NNW 17:52:44 17° NNW 17:52:44 17° NNW
[s.n.66827] 3.8 17:52:28 10° NNW 17:53:15 17° NNW 17:53:15 17° NNW
[s.n.66826] 3.8 17:52:58 10° NNW 17:53:45 17° NNW 17:53:45 17° NNW
[s.n.66825] 3.8 17:53:25 10° NNW 17:54:11 17° NNW 17:54:11 17° NNW
[s.n.66824] 3.8 17:53:56 10° NNW 17:54:42 17° NNW 17:54:42 17° NNW
[s.n.66823] 3.9 17:54:27 10° NNW 17:55:12 16° NNW 17:55:12 16° NNW
[s.n.66822] 3.9 17:54:56 10° NNW 17:55:41 16° NNW 17:55:41 16° NNW
[s.n.66821] 3.9 17:55:24 10° NNW 17:56:10 17° NNW 17:56:10 17° NNW
Cosmos 1538 Rocket 3.9 17:53:55 10° NNW 17:59:14 82° ENE 18:04:34 10° SSE
Cosmos 1606 Rocket 3.8 17:56:55 10° SSW 18:01:19 71° WNW 18:05:40 11° N
Meteor 1-26 Rocket 4.4 17:59:01 10° SSE 18:04:06 44° E 18:05:35 36° NE
Lacrosse 5 rocket 2.2 18:08:06 10° WNW 18:11:16 31° N 18:11:16 31° N
Cosmos 1553 Rocket 4.2 18:05:42 10° SSE 18:11:32 47° E 18:14:51 25° NNE
Cosmos 2219 3.1 18:06:37 10° NNW 18:12:24 78° ENE 18:17:56 11° SE
GEOS 3 Rocket 3.9 18:09:53 29° NNE 18:12:43 69° NW 18:18:03 10° WSW
BREEZE-M DEB (TANK) 3.1 18:11:07 10° WSW 18:12:04 27° SW 18:12:04 27° SW
Resurs 1-3 3.4 18:08:45 10° SSE 18:13:02 74° ENE 18:17:21 10° N
SL-16 R/B 4.0 18:11:13 10° N 18:16:42 34° WNW 18:22:08 10° WSW
Lacrosse 4 Rocket 3.9 18:17:22 10° NNW 18:18:05 10° NNW 18:18:49 10° NNW
Cosmos 1980 Rocket 2.1 18:12:32 10° SSW 18:18:07 64° ESE 18:19:44 44° NE
Cosmos 1354 Rocket 4.5 18:14:17 10° SW 18:19:28 59° WNW 18:22:53 21° NNE
Cosmos 1844 Rocket 3.4 18:14:18 10° NNW 18:19:00 35° NE 18:19:00 35° NE
CENTAUR R/B 3.8 18:14:32 10° WNW 18:20:27 34° N 18:24:02 24° NNE
Meteor 2-20 4.4 18:15:48 10° S 18:21:58 88° W 18:28:10 10° N
USA 281 4.4 18:22:44 24° NNE 18:22:44 24° NNE 18:27:12 10° NNW
NOSS 2-3 (C) 3.5 18:21:13 10° SW 18:23:55 52° SSW 18:23:55 52° SSW
Spot 4 Rocket 4.0 18:19:45 10° SSE 18:24:51 83° WSW 18:30:01 10° NNW
Cosmos 1726 Rocket 4.3 18:20:41 10° SSW 18:25:15 57° WNW 18:28:51 16° N
Cosmos 1745 Rocket 4.3 18:19:44 10° N 18:24:48 41° NE 18:24:48 41° NE
Cosmos 2263 Rocket 2.6 18:21:25 10° NW 18:27:01 62° WSW 18:32:37 10° SSE
Cosmos 1898 Rocket 3.4 18:25:14 10° S 18:30:11 60° ESE 18:30:11 60° ESE
Cosmos 2369 4.0 18:25:41 10° S 18:30:42 47° SE 18:30:42 47° SE
Cosmos 1244 Rocket 4.4 18:25:04 10° N 18:31:23 88° ENE 18:37:36 10° S
Cosmos 1461 4.0 18:28:35 10° WSW 18:32:10 33° NW 18:32:37 32° NNW
Cosmos 44 Rocket 4.1 18:28:05 10° NNW 18:32:08 39° NNE 18:32:08 39° NNE
YAOGAN 1 2.9 18:32:28 10° S 18:36:41 64° WSW 18:40:57 10° NNW
SKYMED 2 3.8 18:36:02 46° N 18:37:10 67° WNW 18:41:28 10° SSW
Cosmos-2242 3.2 18:33:00 10° S 18:36:35 63° SSW 18:36:35 63° SSW
Meteor 1-17 Rocket 4.5 18:32:15 10° N 18:37:51 75° ENE 18:40:27 33° SSE
USA 238 DEB 3.4 18:33:35 10° SW 18:39:43 77° SE 18:41:14 55° ENE
USA 238 3.4 18:33:42 10° SW 18:39:50 77° SE 18:41:19 55° ENE
Cosmos 923 Rocket 3.8 18:35:52 10° NNW 18:41:06 83° ENE 18:41:32 75° SE
USA 215 3.4 18:41:10 50° ENE 18:42:33 60° NNE 18:48:59 10° WNW
Cosmos 372 Rocket 3.8 18:37:36 10° SSW 18:42:46 89° ESE 18:43:10 77° NNE
Cosmos 2227 Rocket 4.1 18:38:24 10° NW 18:43:11 29° WSW 18:47:58 10° SSW
Meteor 2-20 Rocket 4.4 18:37:28 10° S 18:43:41 85° W 18:48:13 19° N
Cosmos 1943 Rocket 4.4 18:41:59 10° N 18:42:28 11° N 18:42:28 11° N
SL-08 R/B 4.5 18:39:42 10° N 18:46:04 87° W 18:52:25 10° S
Cosmos 1937 Rocket 4.1 18:43:58 10° S 18:47:30 43° S 18:47:30 43° S
BREEZE-M DEB (TANK) 4.4 18:46:49 10° WNW 18:51:02 90° S 18:54:54 42° ESE
Cosmos 1386 Rocket 4.3 18:45:11 10° N 18:51:18 79° E 18:57:29 10° SSE
NOSS 2-3 (E) 4.4 18:47:54 10° WSW 18:50:28 40° W 18:50:28 40° W
NOSS 2-3 (D) 4.5 18:48:28 10° WSW 18:51:00 39° W 18:51:00 39° W
Cosmos 1697 Rocket 3.8 18:53:33 10° WSW 18:58:48 39° NW 19:00:59 28° N
Aureole 1 Rocket 3.8 18:54:49 10° SW 18:59:25 64° WNW 19:00:03 58° NNW
Resurs 01 Rocket 4.2 19:07:10 11° NNW 19:07:10 11° NNW 19:07:20 10° NNW
Cosmos 2278 Rocket 4.5 19:01:04 10° N 19:01:48 11° N 19:01:48 11° N
Cosmos 1680 Rocket 4.2 19:08:17 10° NNW 19:12:02 47° NW 19:12:02 47° NW
COSMOS 2455 4.2 19:10:12 10° SSW 19:12:49 26° S 19:12:49 26° S
Cosmos 1980 Rocket 3.9 19:57:33 10° WSW 20:01:31 29° WNW 20:01:31 29° WNW
Cosmos 1844 Rocket 4.5 19:58:09 10° NW 20:00:39 26° NW 20:00:39 26° NW
CENTAUR R/B 4.2 20:06:29 10° NW 20:11:08 32° NNW 20:11:08 32° NNW
